TimeCDT,TemperatureF,Dew PointF,Humidity,Sea Level PressureIn,VisibilityMPH,Wind Direction,Wind SpeedMPH,Gust SpeedMPH,PrecipitationIn,Events,Conditions,WindDirDegrees,DateUTC
12:53 AM,41.0,39.0,93,29.90,7.0,Calm,Calm,-,N/A,,Clear,0,2012-10-01 05:53:00
1:53 AM,42.1,37.9,85,29.88,10.0,Calm,Calm,-,N/A,,Clear,0,2012-10-01 06:53:00
2:53 AM,39.9,37.0,89,29.87,10.0,Calm,Calm,-,N/A,,Clear,0,2012-10-01 07:53:00
3:53 AM,39.0,37.0,93,29.87,10.0,Calm,Calm,-,N/A,,Clear,0,2012-10-01 08:53:00
4:53 AM,37.9,35.1,89,29.86,10.0,Calm,Calm,-,N/A,,Clear,0,2012-10-01 09:53:00
5:53 AM,37.0,34.0,89,29.87,10.0,Calm,Calm,-,N/A,,Clear,0,2012-10-01 10:53:00
6:53 AM,36.0,33.1,89,29.88,10.0,Calm,Calm,-,N/A,,Clear,0,2012-10-01 11:53:00
7:53 AM,36.0,34.0,93,29.90,10.0,Calm,Calm,-,N/A,,Clear,0,2012-10-01 12:53:00
8:53 AM,46.0,42.1,86,29.91,10.0,Calm,Calm,-,N/A,,Scattered Clouds,0,2012-10-01 13:53:00
9:53 AM,55.9,45.0,67,29.90,10.0,Calm,Calm,-,N/A,,Partly Cloudy,0,2012-10-01 14:53:00
10:53 AM,61.0,46.9,60,29.89,10.0,Variable,4.6,-,N/A,,Clear,0,2012-10-01 15:53:00
11:53 AM,63.0,48.0,58,29.89,10.0,Variable,3.5,-,N/A,,Clear,0,2012-10-01 16:53:00
12:53 PM,66.9,50.0,54,29.89,10.0,Variable,6.9,-,N/A,,Clear,0,2012-10-01 17:53:00
1:53 PM,68.0,50.0,52,29.88,10.0,NNW,9.2,-,N/A,,Clear,340,2012-10-01 18:53:00
2:53 PM,64.9,50.0,58,29.89,10.0,Variable,5.8,-,N/A,,Overcast,0,2012-10-01 19:53:00
5:53 PM,64.0,48.9,58,29.92,10.0,Variable,3.5,-,N/A,,Clear,0,2012-10-01 22:53:00
6:53 PM,57.0,48.0,72,29.94,10.0,Calm,Calm,-,N/A,,Clear,0,2012-10-01 23:53:00
7:53 PM,50.0,45.0,83,29.95,10.0,Calm,Calm,-,N/A,,Clear,0,2012-10-02 00:53:00
8:53 PM,44.1,41.0,89,29.96,10.0,Calm,Calm,-,N/A,,Clear,0,2012-10-02 01:53:00
9:53 PM,42.1,39.9,92,29.96,6.0,Calm,Calm,-,N/A,,Clear,0,2012-10-02 02:53:00
10:08 PM,41.0,39.2,93,29.94,2.5,Calm,Calm,-,N/A,,Partly Cloudy,0,2012-10-02 03:08:00
10:12 PM,41.0,39.2,93,29.94,1.0,Calm,Calm,-,N/A,,Mist,0,2012-10-02 03:12:00
10:19 PM,42.8,39.2,87,29.94,0.8,Calm,Calm,-,N/A,,Mist,0,2012-10-02 03:19:00
10:22 PM,41.0,39.2,93,29.94,1.2,Calm,Calm,-,N/A,,Partly Cloudy,0,2012-10-02 03:22:00
11:03 PM,39.2,37.4,93,29.95,3.0,Calm,Calm,-,N/A,,Clear,0,2012-10-02 04:03:00
11:46 PM,37.4,35.6,93,29.94,2.0,Calm,Calm,-,N/A,,Clear,0,2012-10-02 04:46:00
11:53 PM,37.9,35.1,89,29.96,2.0,Calm,Calm,-,N/A,,Clear,0,2012-10-02 04:53:00